When you browse on this site, cookies collect data to enhance your experience and personalize the content and advertising you see.
Visit our Privacy Policy to learn more. By continuing to use the site, you agree to this use of cookies and data.
  • en Suisse
  • Liste des pays
  • À 7 jours
  • Température de l'eau
  • Carte météo
  • Widgets météo
  • user-avatar
    Se connecter

    Météo par heure à Sydney

    Ce jour, 22 Février, Samedi

    Heure Température Précipitation Vent Pression Humidité
    00:00 +20°C° 0.8 mm 4 m/s 765 mmHg 86%
    01:00 +20°C° 0.8 mm 4 m/s 765 mmHg 86%
    02:00 +20°C° 0.6 mm 4 m/s 765 mmHg 86%
    03:00 +20°C° 0.6 mm 4 m/s 765 mmHg 86%
    04:00 +20°C° 0.6 mm 5 m/s 765 mmHg 86%
    05:00 +20°C° 0.3 mm 4 m/s 765 mmHg 85%
    06:00 +20°C° 0.3 mm 4 m/s 766 mmHg 84%
    07:00 +20°C° 0.3 mm 3 m/s 766 mmHg 83%
    08:00 +21°C° 0.4 mm 4 m/s 767 mmHg 79%
    09:00 +22°C° 0.4 mm 4 m/s 767 mmHg 75%
    10:00 +23°C° 0.4 mm 4 m/s 767 mmHg 71%
    11:00 +23°C° 0.3 mm 4 m/s 767 mmHg 70%
    12:00 +25°C° 0.3 mm 5 m/s 767 mmHg 68%
    13:00 +25°C° 0.3 mm 5 m/s 766 mmHg 66%
    14:00 +23°C° 0.1 mm 5 m/s 766 mmHg 68%
    15:00 +23°C° 0.1 mm 5 m/s 766 mmHg 71%
    16:00 +22°C° 0.1 mm 5 m/s 765 mmHg 73%
    17:00 +22°C° 0 mm 5 m/s 766 mmHg 73%
    18:00 +22°C° 0 mm 5 m/s 766 mmHg 74%
    19:00 +21°C° 0 mm 4 m/s 767 mmHg 74%
    20:00 +21°C° 0 mm 4 m/s 767 mmHg 75%
    21:00 +21°C° 0 mm 4 m/s 767 mmHg 76%
    22:00 +21°C° 0 mm 4 m/s 767 mmHg 77%
    23:00 +21°C° 0.1 mm 4 m/s 767 mmHg 78%

    Demain, 23 Février, Dimanche

    Heure Température Précipitation Vent Pression Humidité
    00:00 +20°C° 0.1 mm 3 m/s 767 mmHg 79%
    01:00 +20°C° 0.1 mm 3 m/s 767 mmHg 80%
    02:00 +20°C° 0.1 mm 3 m/s 766 mmHg 80%
    03:00 +20°C° 0.1 mm 3 m/s 766 mmHg 80%
    04:00 +20°C° 0.1 mm 3 m/s 766 mmHg 81%
    05:00 +20°C° 0 mm 2 m/s 767 mmHg 81%
    06:00 +20°C° 0 mm 2 m/s 767 mmHg 81%
    07:00 +20°C° 0 mm 2 m/s 767 mmHg 81%
    08:00 +23°C° 0.1 mm 2 m/s 768 mmHg 76%
    09:00 +24°C° 0.1 mm 2 m/s 768 mmHg 70%
    10:00 +25°C° 0.1 mm 2 m/s 768 mmHg 65%
    11:00 +25°C° 0.1 mm 3 m/s 767 mmHg 63%
    12:00 +26°C° 0.1 mm 4 m/s 767 mmHg 61%
    13:00 +26°C° 0.1 mm 4 m/s 766 mmHg 58%
    14:00 +26°C° 0 mm 5 m/s 766 mmHg 57%
    15:00 +26°C° 0 mm 5 m/s 765 mmHg 55%
    16:00 +27°C° 0 mm 5 m/s 765 mmHg 54%
    17:00 +25°C° 0 mm 5 m/s 765 mmHg 61%
    18:00 +23°C° 0 mm 5 m/s 765 mmHg 68%
    19:00 +22°C° 0 mm 5 m/s 765 mmHg 76%
    20:00 +22°C° 0 mm 5 m/s 766 mmHg 77%
    21:00 +22°C° 0 mm 4 m/s 766 mmHg 78%
    22:00 +21°C° 0 mm 4 m/s 766 mmHg 79%
    23:00 +21°C° 0 mm 3 m/s 766 mmHg 79%

    Après-demain, 24 Février, Lundi

    Heure Température Précipitation Vent Pression Humidité
    00:00 +21°C° 0 mm 3 m/s 765 mmHg 80%
    01:00 +21°C° 0 mm 2 m/s 765 mmHg 80%
    02:00 +21°C° 0 mm 2 m/s 765 mmHg 80%
    03:00 +21°C° 0 mm 2 m/s 765 mmHg 81%
    04:00 +20°C° 0 mm 2 m/s 764 mmHg 81%
    05:00 +21°C° 0 mm 2 m/s 765 mmHg 80%
    06:00 +21°C° 0 mm 2 m/s 765 mmHg 79%
    07:00 +21°C° 0 mm 2 m/s 765 mmHg 78%
    08:00 +24°C° 0 mm 2 m/s 765 mmHg 69%
    09:00 +26°C° 0 mm 2 m/s 765 mmHg 60%
    10:00 +28°C° 0 mm 3 m/s 765 mmHg 51%
    11:00 +29°C° 0 mm 3 m/s 764 mmHg 47%
    12:00 +30°C° 0 mm 4 m/s 764 mmHg 43%
    13:00 +32°C° 0 mm 5 m/s 763 mmHg 39%
    14:00 +32°C° 0 mm 5 m/s 763 mmHg 40%
    15:00 +32°C° 0 mm 5 m/s 762 mmHg 40%
    16:00 +32°C° 0 mm 5 m/s 761 mmHg 40%
    17:00 +29°C° 0 mm 6 m/s 762 mmHg 51%
    18:00 +27°C° 0 mm 6 m/s 762 mmHg 61%
    19:00 +24°C° 0 mm 6 m/s 762 mmHg 71%
    20:00 +23°C° 0 mm 5 m/s 763 mmHg 73%
    21:00 +22°C° 0 mm 5 m/s 763 mmHg 76%
    22:00 +22°C° 0 mm 4 m/s 763 mmHg 78%
    23:00 +21°C° 0 mm 3 m/s 763 mmHg 80%

    25 Février, Mardi

    Heure Température Précipitation Vent Pression Humidité
    00:00 +21°C° 0 mm 3 m/s 762 mmHg 81%
    01:00 +21°C° 0 mm 2 m/s 762 mmHg 82%
    02:00 +21°C° 0 mm 2 m/s 762 mmHg 83%
    03:00 +20°C° 0 mm 2 m/s 762 mmHg 84%
    04:00 +21°C° 0 mm 1 m/s 762 mmHg 86%
    05:00 +21°C° 0 mm 1 m/s 762 mmHg 84%
    06:00 +22°C° 0 mm 1 m/s 762 mmHg 82%
    07:00 +22°C° 0 mm 1 m/s 762 mmHg 81%
    08:00 +24°C° 0 mm 1 m/s 762 mmHg 71%
    09:00 +27°C° 0 mm 1 m/s 761 mmHg 61%
    10:00 +29°C° 0 mm 1 m/s 761 mmHg 51%
    11:00 +30°C° 0 mm 2 m/s 761 mmHg 46%
    12:00 +31°C° 0 mm 3 m/s 760 mmHg 42%
    13:00 +33°C° 0 mm 4 m/s 759 mmHg 38%
    14:00 +33°C° 0 mm 5 m/s 759 mmHg 42%
    15:00 +32°C° 0 mm 5 m/s 758 mmHg 46%
    16:00 +30°C° 0 mm 6 m/s 757 mmHg 51%
    17:00 +29°C° 0 mm 6 m/s 757 mmHg 59%
    18:00 +27°C° 0 mm 6 m/s 758 mmHg 67%
    19:00 +26°C° 0 mm 6 m/s 758 mmHg 76%
    20:00 +25°C° 0 mm 5 m/s 758 mmHg 78%
    21:00 +25°C° 0 mm 4 m/s 758 mmHg 80%
    22:00 +23°C° 0 mm 4 m/s 758 mmHg 83%
    23:00 +24°C° 0 mm 3 m/s 757 mmHg 84%

    26 Février, Mercredi

    Heure Température Précipitation Vent Pression Humidité
    00:00 +24°C° 0 mm 3 m/s 757 mmHg 85%
    01:00 +22°C° 0 mm 3 m/s 757 mmHg 87%
    02:00 +22°C° 0 mm 3 m/s 756 mmHg 86%
    03:00 +22°C° 0 mm 3 m/s 756 mmHg 85%
    04:00 +22°C° 0 mm 3 m/s 755 mmHg 85%
    05:00 +22°C° 0 mm 3 m/s 755 mmHg 80%
    06:00 +24°C° 0 mm 3 m/s 755 mmHg 74%
    07:00 +24°C° 0 mm 3 m/s 755 mmHg 69%
    08:00 +27°C° 0 mm 3 m/s 755 mmHg 59%
    09:00 +30°C° 0 mm 3 m/s 755 mmHg 50%
    10:00 +33°C° 0 mm 3 m/s 755 mmHg 41%
    11:00 +34°C° 0 mm 3 m/s 755 mmHg 38%
    12:00 +35°C° 0 mm 3 m/s 754 mmHg 36%
    13:00 +36°C° 0 mm 2 m/s 754 mmHg 33%
    14:00 +33°C° 0.1 mm 4 m/s 754 mmHg 46%
    15:00 +29°C° 0.1 mm 5 m/s 754 mmHg 59%
    16:00 +26°C° 0.1 mm 6 m/s 754 mmHg 72%
    17:00 +24°C° 0.1 mm 7 m/s 755 mmHg 74%
    18:00 +23°C° 0.1 mm 8 m/s 756 mmHg 76%
    19:00 +22°C° 0.1 mm 9 m/s 757 mmHg 78%
    20:00 +21°C° 0.1 mm 9 m/s 758 mmHg 77%
    21:00 +21°C° 0.1 mm 8 m/s 759 mmHg 77%
    22:00 +20°C° 0.1 mm 8 m/s 760 mmHg 76%
    23:00 +20°C° 0.1 mm 7 m/s 760 mmHg 75%

    27 Février, Jeudi

    Heure Température Précipitation Vent Pression Humidité
    00:00 +20°C° 0.1 mm 7 m/s 760 mmHg 74%
    01:00 +20°C° 0.1 mm 6 m/s 760 mmHg 73%
    02:00 +20°C° 0 mm 6 m/s 761 mmHg 73%
    03:00 +20°C° 0 mm 5 m/s 761 mmHg 73%
    04:00 +20°C° 0 mm 5 m/s 761 mmHg 74%
    05:00 +20°C° 0 mm 4 m/s 761 mmHg 73%
    06:00 +20°C° 0 mm 3 m/s 761 mmHg 72%
    07:00 +20°C° 0 mm 3 m/s 762 mmHg 71%
    08:00 +21°C° 0 mm 3 m/s 762 mmHg 69%
    09:00 +21°C° 0 mm 3 m/s 762 mmHg 67%
    10:00 +22°C° 0 mm 3 m/s 762 mmHg 65%
    11:00 +22°C° 0 mm 3 m/s 762 mmHg 66%
    12:00 +23°C° 0 mm 2 m/s 761 mmHg 67%
    13:00 +23°C° 0 mm 2 m/s 761 mmHg 68%
    14:00 +24°C° 0 mm 3 m/s 760 mmHg 65%
    15:00 +24°C° 0 mm 3 m/s 760 mmHg 63%
    16:00 +25°C° 0 mm 4 m/s 759 mmHg 60%
    17:00 +23°C° 0 mm 4 m/s 759 mmHg 65%
    18:00 +22°C° 0 mm 4 m/s 759 mmHg 70%
    19:00 +22°C° 0 mm 4 m/s 760 mmHg 75%
    20:00 +21°C° 0 mm 4 m/s 760 mmHg 78%
    21:00 +21°C° 0 mm 4 m/s 760 mmHg 81%
    22:00 +20°C° 0 mm 4 m/s 760 mmHg 84%
    23:00 +20°C° 0 mm 3 m/s 760 mmHg 85%
    Voir plus